This demonstration page uses our WeatherBlox Daily Observations layout. Learn more.

Left ArrowRight Arrow

41.12389, -100.76542

Hourly Observations for August 19, 2019

Temp ( °F °C ) Dew Point ( °F °C ) Humidity (%) Winds ( mph kmh ) Pressure ( in mb ) Visibility ( mi km ) Precip ( " mm )
12:53 am 00:53 Clear 65 18.3 63 17.2 93 93 SE 12 19 29.91 1013 10 16 0.00 0.00
1:53 am 01:53 Clear 65 18.3 63 17.2 93 93 SE 10 17 29.93 1014 10 16 0.00 0.00
2:09 am 02:09 Partly Cloudy 65 18.3 63 17.2 93 93 SE 10 17 29.90 1012 10 16 0.00 0.00
2:25 am 02:25 Mostly Cloudy 65 18.3 63 17.2 93 93 SE 13 20 29.90 1012 7 11 0.00 0.00
2:42 am 02:42 Cloudy with Mist and Fog 65 18.3 64 17.8 97 97 SE 15 24 29.90 1012 2 3 0.00 0.00
2:49 am 02:49 Cloudy with Mist and Fog 64 18 64 18 100 100 SE 15 24 29.90 1013 2 2 0.00 0.00
2:53 am 02:53 Cloudy with Mist and Fog 65 18.3 64 17.8 97 97 SE 12 19 29.92 1013 1 2 0.00 0.00
3:26 am 03:26 Mostly Cloudy with Mist and Fog 65 18.3 64 17.8 97 97 SE 9 15 29.90 1012 1 1 0.00 0.00
3:46 am 03:46 Mostly Cloudy with Mist and Fog 65 18.3 64 17.8 97 97 SE 10 17 29.89 1012 1 2 0.00 0.00
3:53 am 03:53 Mostly Cloudy with Mist and Fog 66 18.9 65 18.3 96 96 SE 12 19 29.91 1013 1 2 0.00 0.00
4:20 am 04:20 Cloudy with Mist and Fog 66 18.9 65 18.3 96 96 SSE 13 20 29.89 1012 2 3 0.00 0.00
4:53 am 04:53 Cloudy with Mist and Fog 66 18.9 65 18.3 96 96 SE 10 17 29.92 1013 2 3 0.00 0.00
5:37 am 05:37 Cloudy with Mist and Fog 66 18.9 65 18.3 96 96 SE 10 17 29.89 1012 2 3 0.00 0.00
5:53 am 05:53 Cloudy with Mist and Fog 66 18.9 65 18.3 96 96 SSE 7 11 29.92 1013 3 4 0.00 0.00
6:01 am 06:01 Cloudy with Mist and Fog 66 18.9 65 18.3 96 96 SSE 7 11 29.89 1012 3 5 0.00 0.00
6:45 am 06:45 Cloudy with Mist and Fog 66 18.9 65 18.3 96 96 SE 7 11 29.90 1013 4 6 0.00 0.00
6:53 am 06:53 Cloudy with Mist and Fog 66 18.9 65 18.3 96 96 SE 7 11 29.93 1013 4 6 0.00 0.00
7:44 am 07:44 Cloudy with Mist and Fog 66 18.9 65 18.3 96 96 ESE 6 9 29.90 1013 3 4 0.00 0.00
7:53 am 07:53 Cloudy with Mist and Fog 66 18.9 65 18.3 96 96 ESE 9 15 29.93 1013 2 3 0.00 0.00
8:03 am 08:03 Cloudy with Mist and Fog 66 18.9 65 18.3 96 96 SE 9 15 29.90 1013 2 2 0.00 0.00
8:12 am 08:12 Cloudy with Mist and Fog 66 18.9 65 18.3 96 96 SE 7 11 29.90 1013 1 2 0.00 0.00
8:32 am 08:32 Mostly Cloudy with Mist and Fog 66 18.9 65 18.3 96 96 SE 7 11 29.90 1013 1 1 0.00 0.00
8:39 am 08:39 Mostly Cloudy with Mist and Fog 66 18.9 65 18.3 96 96 SE 7 11 29.90 1013 1 2 0.00 0.00
8:53 am 08:53 Cloudy with Mist and Fog 67 19.4 66 18.9 97 97 SE 7 11 29.93 1014 2 2 0.00 0.00
9:08 am 09:08 Cloudy with Mist and Fog 67 19.4 65 18.3 93 93 SE 7 11 29.90 1012 2 3 0.00 0.00
9:30 am 09:30 Cloudy with Mist and Fog 67 19.4 66 18.9 97 97 S 6 9 29.89 1012 3 5 0.00 0.00
9:53 am 09:53 Cloudy with Mist and Fog 68 20 67 19.4 96 96 SSE 8 13 29.93 1014 5 8 0.00 0.00
10:53 am 10:53 Cloudy 72 22.2 69 20.6 91 91 S 7 11 29.93 1014 10 16 0.00 0.00
11:53 am 11:53 Cloudy 76 24.4 70 21.1 82 82 S 13 20 29.91 1013 10 16 0.00 0.00
12:39 pm 12:39 Cloudy 78 25.6 71 21.7 79 79 SSW 13 20 29.83 1010 10 16 0.00 0.00
12:53 pm 12:53 Cloudy 79 26.1 71 21.7 77 77 SSW 10 17 29.91 1013 10 16 0.00 0.00
1:53 pm 13:53 Mostly Cloudy 81 27.2 72 22.2 74 74 S 10 17 29.88 1012 10 16 0.00 0.00
2:53 pm 14:53 Partly Cloudy 82 27.8 73 22.8 74 74 S 12 19 29.87 1012 10 16 0.00 0.00
3:32 pm 15:32 Mostly Cloudy 82 27.8 72 22.2 72 72 WSW 6 9 29.79 1009 10 16 0.00 0.00
3:53 pm 15:53 Mostly Cloudy 84 28.9 74 23.3 72 72 WSW 7 11 29.87 1012 10 16 0.00 0.00
4:14 pm 16:14 Mostly Sunny 83 28.3 73 22.8 72 72 SW 9 15 29.75 1008 10 16 0.00 0.00
4:53 pm 16:53 Partly Cloudy 84 28.9 73 22.8 70 70 WSW 8 13 29.87 1011 10 16 0.00 0.00
5:53 pm 17:53 Sunny 86 30 72 22.2 63 63 SSW 7 11 29.86 1011 10 16 0.00 0.00
6:53 pm 18:53 Sunny 86 30 73 22.8 65 65 SSW 6 9 29.85 1011 10 16 0.00 0.00
7:53 pm 19:53 Sunny 83 28.3 74 23.3 74 74 S 5 7 29.85 1011 10 16 0.00 0.00
8:53 pm 20:53 Clear 77 25 72 22.2 85 85 SE 3 6 29.86 1011 10 16 0.00 0.00
9:53 pm 21:53 Clear 73 22.8 70 21.1 90 90 SE 7 11 29.88 1012 10 16 0.00 0.00
10:53 pm 22:53 undefined 75 23.9 72 22.2 90 90 SSE 6 9 29.88 1012 10 16 0.00 0.00
11:53 pm 23:53 Clear 72 22.2 70 21.1 94 94 E 3 6 29.88 1012 9 14 0.00 0.00

Powered by AerisWeather